Погода в Красном

Украина / Львовская область     48°56′39″N   23°09′49″E
темп.,
°C
ветер,
м/с
пор.,
м/с
влажн.,
%
обл.,
%
осадки,
мм/ч
давл.,
гПа
погр.,
м
21 января, пт
пт2123:00−9з5129280 0.0 1015847
02:00−8з41291100 0.1 10161003
05:00−10зюз399390 0.1 1017430
08:00−12зюз31097100 0.1 1019439
11:00−7з5118282 0.0 10181025
14:00−6з51186100 0.3 10171161
17:00−7з51193100 0.8 10171186
20:00−8зсз499396 1.6 1017917
22 января, сб
сб2223:00−9з3994100 0.4 1018656
02:00−9зюз2795100 1.3 1017561
05:00−9з2796100 0.8 1017535
08:00−12юз219898 1.0 101835
11:00−8зюз2890100 0.4 1018671
14:00−6сз31194100 3.1 10181245
17:00−7ссз41094100 2.3 1021903
20:00−8ссз3995100 3.1 1024935
23 января, вс
вс2323:00−8ссз41194100 0.7 10251062
02:00−7сз31095100 1.5 1024983
05:00−7ссз31195100 1.6 10241297
08:00−7ссз41095100 3.3 10261033
11:00−7с51092100 1.3 10271022
14:00−6с3894100 2.6 10271018
17:00−8ссв4995100 1.4 1029848
20:00−10св3109498 2.1 1032618
24 января, пн
пн2423:00−14ссв229996 0.2 103532
02:00−17св1110096 0.3 103710
05:00−19св11100100 0.1 103810
08:00−20ссв00100100 0.1 104010
11:00−10ссв119022 0.0 1037166
14:00−7ссв12795 0.0 1035382
17:00−13ссв119610 0.0 103710
20:00−18ю1110080 0.0 10399
25 января, вт
вт2523:00−19ю119812 0.0 103910
02:00−19ююз118892 0.0 103910
05:00−19ююз2188100 0.0 103811
08:00−18ююз2289100 0.0 103716
11:00−9ююз2393100 0.3 1033195
14:00−7ююз2394100 1.6 1030278
17:00−7ююз2496100 1.1 1030248
20:00−9ююз2396100 2.3 1030150